{"data":{"norad_id":68576,"intl_designator":"2026-072D","name":"KUIPER-00193","alt_names":[],"object_type":"PAYLOAD","status":"ACTIVE","operator":null,"country":"US","launch_date":"2026-04-04","launch_site_code":"AFETR","launch_vehicle":null,"mission":null,"orbit_class":"UNKNOWN","rcs_meters":null,"size_class":null,"mass_kg":null,"dimensions":null,"purposes":[],"wikipedia_slug":null,"has_3d_model":false,"image_url":null,"decayed_at":null,"tle_current":{"epoch":"2026-09-19T23:34:54.378912Z","epoch_age_seconds":111183,"freshness":"FRESH","line1":"1 68576U 26072D   26262.98257383  .00001961  00000+0  28619-3 0  9997","line2":"2 68576  51.9048 124.0111 0001073 110.3425 249.7653 14.79933888 25337","mean_motion":14.79933888,"eccentricity":0.0001073,"inclination_deg":51.9048,"raan_deg":124.0111,"arg_perigee_deg":110.3425,"mean_anomaly_deg":249.7653,"bstar":0.00028619,"rev_number":2533,"period_min":97.301643788023,"perigee_km":628.78090300812,"apogee_km":630.28474895277,"semimajor_km":7007.6698259804,"source":"CELESTRAK","updated_at":"2026-09-20T09:00:24.318854Z"}}}